Location: ??????
(41.3164°N, 22.6615°E)
Time: 06:50:44
(UTC+00:00)

CUBEBUG 2 - Pass Details

Date: 02 July 2022
Orbit: 584 x 693 km, 97.7° (Epoch: 07 August)

Event Time Altitude Azimuth Distance (km) Brightness Sun altitude
Rises 01:01:15 0° 19° (NNE) 2,836 ? -17.1°
Reaches altitude 10° 01:03:30 10° 27° (NNE) 1,940 ? -16.8°
Maximum altitude 01:07:30 42° 99° (E) 876 ? -16.4°
Enters shadow 01:10:48 15° 166° (SSE) 1,688 ? -16.0°
